Time,TemperatureF,DewpointF,PressureIn,WindDirection,WindDirectionDegrees,WindSpeedMPH,WindSpeedGustMPH,Humidity,HourlyPrecipIn,Conditions,Clouds,dailyrainin,SoftwareType,DateUTC
2013-02-26 00:01:00,47.0,18.0,30.12,East,81,7.0,15.0,31,0.00,,,0.00,,2013-02-26 08:01:00,
2013-02-26 00:11:00,47.0,18.0,30.12,East,81,7.0,15.0,31,0.00,,,0.00,,2013-02-26 08:11:00,
2013-02-26 00:21:00,46.0,18.0,30.12,East,98,6.0,10.0,32,0.00,,,0.00,,2013-02-26 08:21:00,
2013-02-26 00:31:00,43.0,18.0,30.12,East,86,6.0,8.0,36,0.00,,,0.00,,2013-02-26 08:31:00,
2013-02-26 00:41:00,43.0,18.0,30.12,East,86,6.0,8.0,36,0.00,,,0.00,,2013-02-26 08:41:00,
2013-02-26 00:52:00,41.0,17.0,30.11,East,87,9.0,10.0,38,0.00,,,0.00,,2013-02-26 08:52:00,
2013-02-26 01:01:00,46.0,16.0,30.11,East,83,10.0,15.0,30,0.00,,,0.00,,2013-02-26 09:01:00,
2013-02-26 01:11:00,46.0,16.0,30.11,East,83,10.0,15.0,30,0.00,,,0.00,,2013-02-26 09:11:00,
2013-02-26 01:21:00,46.0,18.0,30.11,East,93,7.0,12.0,32,0.00,,,0.00,,2013-02-26 09:21:00,
2013-02-26 01:31:00,44.0,17.0,30.11,East,98,11.0,13.0,34,0.00,,,0.00,,2013-02-26 09:31:00,
2013-02-26 01:42:00,44.0,17.0,30.11,East,98,11.0,13.0,34,0.00,,,0.00,,2013-02-26 09:42:00,
2013-02-26 01:52:00,44.0,18.0,30.11,ESE,105,10.0,12.0,35,0.00,,,0.00,,2013-02-26 09:52:00,
2013-02-26 02:01:00,45.0,18.0,30.11,ESE,122,9.0,11.0,34,0.00,,,0.00,,2013-02-26 10:01:00,
2013-02-26 02:11:00,45.0,18.0,30.11,ESE,122,9.0,11.0,34,0.00,,,0.00,,2013-02-26 10:11:00,
2013-02-26 02:21:00,44.0,18.0,30.11,ESE,103,7.0,10.0,35,0.00,,,0.00,,2013-02-26 10:21:00,
2013-02-26 02:31:00,44.0,19.0,30.10,East,91,9.0,12.0,36,0.00,,,0.00,,2013-02-26 10:31:00,
2013-02-26 02:41:00,44.0,19.0,30.10,East,91,9.0,12.0,36,0.00,,,0.00,,2013-02-26 10:41:00,
2013-02-26 02:52:00,46.0,19.0,30.10,ESE,103,7.0,13.0,33,0.00,,,0.00,,2013-02-26 10:52:00,
2013-02-26 03:01:00,44.0,18.0,30.11,ESE,117,6.0,8.0,35,0.00,,,0.00,,2013-02-26 11:01:00,
2013-02-26 03:11:00,44.0,18.0,30.11,ESE,117,6.0,8.0,35,0.00,,,0.00,,2013-02-26 11:11:00,
2013-02-26 03:21:00,43.0,19.0,30.10,East,91,4.0,5.0,38,0.00,,,0.00,,2013-02-26 11:21:00,
2013-02-26 03:31:00,40.0,18.0,30.10,ESE,111,4.0,6.0,41,0.00,,,0.00,,2013-02-26 11:31:00,
2013-02-26 03:41:00,40.0,18.0,30.10,ESE,111,4.0,6.0,41,0.00,,,0.00,,2013-02-26 11:41:00,
2013-02-26 03:52:00,38.0,20.0,30.10,ESE,120,5.0,6.0,47,0.00,,,0.00,,2013-02-26 11:52:00,
2013-02-26 04:01:00,37.0,20.0,30.11,SSE,150,0.0,3.0,49,0.00,,,0.00,,2013-02-26 12:01:00,
2013-02-26 04:11:00,37.0,20.0,30.11,SSE,150,0.0,3.0,49,0.00,,,0.00,,2013-02-26 12:11:00,
2013-02-26 04:22:00,41.0,20.0,30.12,East,100,2.0,4.0,42,0.00,,,0.00,,2013-02-26 12:22:00,
2013-02-26 04:32:00,39.0,20.0,30.13,ESE,103,5.0,6.0,46,0.00,,,0.00,,2013-02-26 12:32:00,
2013-02-26 04:42:00,39.0,20.0,30.13,ESE,103,5.0,6.0,46,0.00,,,0.00,,2013-02-26 12:42:00,
2013-02-26 04:52:00,41.0,21.0,30.13,ESE,106,6.0,7.0,44,0.00,,,0.00,,2013-02-26 12:52:00,
2013-02-26 05:01:00,42.0,21.0,30.13,ENE,72,4.0,7.0,43,0.00,,,0.00,,2013-02-26 13:01:00,
2013-02-26 05:11:00,42.0,21.0,30.13,ENE,72,4.0,7.0,43,0.00,,,0.00,,2013-02-26 13:11:00,
2013-02-26 05:21:00,42.0,22.0,30.13,East,86,6.0,6.0,44,0.00,,,0.00,,2013-02-26 13:21:00,
2013-02-26 05:31:00,38.0,21.0,30.13,East,79,3.0,4.0,50,0.00,,,0.00,,2013-02-26 13:31:00,
2013-02-26 05:42:00,38.0,21.0,30.13,East,79,3.0,4.0,50,0.00,,,0.00,,2013-02-26 13:42:00,
2013-02-26 05:51:00,37.0,21.0,30.13,ESE,106,3.0,5.0,53,0.00,,,0.00,,2013-02-26 13:51:00,
2013-02-26 06:01:00,35.0,21.0,30.13,ESE,112,3.0,5.0,56,0.00,,,0.00,,2013-02-26 14:01:00,
2013-02-26 06:11:00,35.0,21.0,30.13,ESE,112,3.0,5.0,56,0.00,,,0.00,,2013-02-26 14:11:00,
2013-02-26 06:21:00,34.0,22.0,30.13,ESE,103,4.0,5.0,60,0.00,,,0.00,,2013-02-26 14:21:00,
2013-02-26 06:31:00,34.0,22.0,30.13,ENE,69,3.0,7.0,60,0.00,,,0.00,,2013-02-26 14:31:00,
2013-02-26 06:41:00,34.0,22.0,30.13,ENE,69,3.0,7.0,60,0.00,,,0.00,,2013-02-26 14:41:00,
2013-02-26 06:52:00,33.0,22.0,30.14,ESE,108,4.0,4.0,63,0.00,,,0.00,,2013-02-26 14:52:00,
2013-02-26 07:01:00,35.0,23.0,30.14,East,92,3.0,4.0,62,0.00,,,0.00,,2013-02-26 15:01:00,
2013-02-26 07:11:00,35.0,23.0,30.14,East,92,3.0,4.0,62,0.00,,,0.00,,2013-02-26 15:11:00,
2013-02-26 07:21:00,36.0,23.0,30.14,East,99,1.0,3.0,60,0.00,,,0.00,,2013-02-26 15:21:00,
2013-02-26 07:31:00,38.0,24.0,30.15,East,98,0.0,1.0,57,0.00,,,0.00,,2013-02-26 15:31:00,
2013-02-26 07:41:00,38.0,24.0,30.15,East,98,0.0,1.0,57,0.00,,,0.00,,2013-02-26 15:41:00,
2013-02-26 07:52:00,41.0,26.0,30.16,East,99,0.0,1.0,54,0.00,,,0.00,,2013-02-26 15:52:00,
2013-02-26 08:01:00,43.0,26.0,30.16,East,98,0.0,1.0,51,0.00,,,0.00,,2013-02-26 16:01:00,
2013-02-26 08:11:00,43.0,26.0,30.16,East,98,0.0,1.0,51,0.00,,,0.00,,2013-02-26 16:11:00,
2013-02-26 08:22:00,45.0,25.0,30.17,ESE,115,3.0,4.0,46,0.00,,,0.00,,2013-02-26 16:22:00,
2013-02-26 08:31:00,46.0,25.0,30.17,SE,136,3.0,5.0,44,0.00,,,0.00,,2013-02-26 16:31:00,
2013-02-26 08:41:00,46.0,25.0,30.17,SE,136,3.0,5.0,44,0.00,,,0.00,,2013-02-26 16:41:00,
2013-02-26 08:52:00,47.0,26.0,30.18,East,90,3.0,6.0,43,0.00,,,0.00,,2013-02-26 16:52:00,
2013-02-26 09:01:00,49.0,26.0,30.19,East,90,2.0,2.0,40,0.00,,,0.00,,2013-02-26 17:01:00,
2013-02-26 09:11:00,49.0,26.0,30.19,East,90,2.0,2.0,40,0.00,,,0.00,,2013-02-26 17:11:00,
2013-02-26 09:21:00,50.0,25.0,30.19,East,92,1.0,2.0,38,0.00,,,0.00,,2013-02-26 17:21:00,
2013-02-26 09:32:00,51.0,25.0,30.19,SE,134,1.0,3.0,36,0.00,,,0.00,,2013-02-26 17:32:00,
2013-02-26 09:41:00,51.0,25.0,30.19,SE,134,1.0,3.0,36,0.00,,,0.00,,2013-02-26 17:41:00,
2013-02-26 09:52:00,52.0,25.0,30.19,SSW,200,1.0,4.0,35,0.00,,,0.00,,2013-02-26 17:52:00,
2013-02-26 10:01:00,52.0,23.0,30.19,West,278,2.0,4.0,32,0.00,,,0.00,,2013-02-26 18:01:00,
2013-02-26 10:12:00,52.0,23.0,30.19,West,278,2.0,4.0,32,0.00,,,0.00,,2013-02-26 18:12:00,
2013-02-26 10:21:00,53.0,23.0,30.19,WSW,252,3.0,10.0,31,0.00,,,0.00,,2013-02-26 18:21:00,
2013-02-26 10:31:00,54.0,21.0,30.19,WSW,249,7.0,12.0,27,0.00,,,0.00,,2013-02-26 18:31:00,
2013-02-26 10:42:00,54.0,21.0,30.19,WSW,249,7.0,12.0,27,0.00,,,0.00,,2013-02-26 18:42:00,
2013-02-26 10:52:00,55.0,20.0,30.19,WSW,243,8.0,13.0,25,0.00,,,0.00,,2013-02-26 18:52:00,
2013-02-26 11:01:00,56.0,17.0,30.19,WSW,246,11.0,14.0,21,0.00,,,0.00,,2013-02-26 19:01:00,
2013-02-26 11:11:00,56.0,17.0,30.19,WSW,246,11.0,14.0,21,0.00,,,0.00,,2013-02-26 19:11:00,
2013-02-26 11:22:00,57.0,16.0,30.18,SW,224,14.0,19.0,20,0.00,,,0.00,,2013-02-26 19:22:00,
2013-02-26 11:31:00,57.0,17.0,30.18,WSW,257,11.0,17.0,21,0.00,,,0.00,,2013-02-26 19:31:00,
2013-02-26 11:41:00,57.0,17.0,30.18,WSW,257,11.0,17.0,21,0.00,,,0.00,,2013-02-26 19:41:00,
2013-02-26 11:52:00,58.0,16.0,30.17,WSW,246,11.0,15.0,19,0.00,,,0.00,,2013-02-26 19:52:00,
2013-02-26 12:01:00,58.0,15.0,30.17,West,266,9.0,14.0,18,0.00,,,0.00,,2013-02-26 20:01:00,
2013-02-26 12:11:00,58.0,15.0,30.17,West,266,9.0,14.0,18,0.00,,,0.00,,2013-02-26 20:11:00,
2013-02-26 12:21:00,58.0,13.0,30.17,West,280,11.0,14.0,17,0.00,,,0.00,,2013-02-26 20:21:00,
2013-02-26 12:31:00,58.0,13.0,30.16,WSW,246,10.0,15.0,17,0.00,,,0.00,,2013-02-26 20:31:00,
2013-02-26 12:41:00,58.0,13.0,30.16,WSW,246,10.0,15.0,17,0.00,,,0.00,,2013-02-26 20:41:00,
2013-02-26 12:52:00,58.0,13.0,30.15,WSW,256,9.0,16.0,17,0.00,,,0.00,,2013-02-26 20:52:00,
2013-02-26 13:01:00,59.0,14.0,30.14,SW,219,11.0,15.0,17,0.00,,,0.00,,2013-02-26 21:01:00,
2013-02-26 13:11:00,59.0,14.0,30.14,SW,219,11.0,15.0,17,0.00,,,0.00,,2013-02-26 21:11:00,
2013-02-26 13:21:00,59.0,13.0,30.14,West,277,9.0,17.0,16,0.00,,,0.00,,2013-02-26 21:21:00,
2013-02-26 13:31:00,60.0,15.0,30.14,WSW,252,8.0,14.0,17,0.00,,,0.00,,2013-02-26 21:31:00,
2013-02-26 13:41:00,60.0,15.0,30.14,WSW,252,8.0,14.0,17,0.00,,,0.00,,2013-02-26 21:41:00,
2013-02-26 13:51:00,59.0,13.0,30.13,West,262,8.0,16.0,16,0.00,,,0.00,,2013-02-26 21:51:00,
2013-02-26 14:01:00,59.0,13.0,30.13,WSW,257,8.0,18.0,16,0.00,,,0.00,,2013-02-26 22:01:00,
2013-02-26 14:11:00,59.0,14.0,30.13,WNW,283,9.0,13.0,17,0.00,,,0.00,,2013-02-26 22:11:00,
2013-02-26 14:21:00,59.0,14.0,30.13,WNW,283,9.0,13.0,17,0.00,,,0.00,,2013-02-26 22:21:00,
2013-02-26 14:31:00,59.0,13.0,30.13,WSW,246,8.0,13.0,16,0.00,,,0.00,,2013-02-26 22:31:00,
2013-02-26 14:41:00,59.0,13.0,30.13,WSW,246,8.0,13.0,16,0.00,,,0.00,,2013-02-26 22:41:00,
2013-02-26 14:51:00,59.0,13.0,30.13,WSW,252,10.0,15.0,16,0.00,,,0.00,,2013-02-26 22:51:00,
2013-02-26 15:01:00,59.0,13.0,30.13,SSW,210,6.0,13.0,16,0.00,,,0.00,,2013-02-26 23:01:00,
2013-02-26 15:11:00,59.0,13.0,30.13,SSW,210,6.0,13.0,16,0.00,,,0.00,,2013-02-26 23:11:00,
2013-02-26 15:21:00,59.0,13.0,30.13,West,262,4.0,12.0,16,0.00,,,0.00,,2013-02-26 23:21:00,
2013-02-26 15:31:00,59.0,13.0,30.13,WSW,257,9.0,12.0,16,0.00,,,0.00,,2013-02-26 23:31:00,
2013-02-26 15:41:00,59.0,13.0,30.13,WSW,257,9.0,12.0,16,0.00,,,0.00,,2013-02-26 23:41:00,
2013-02-26 15:52:00,59.0,13.0,30.13,West,259,4.0,8.0,16,0.00,,,0.00,,2013-02-26 23:52:00,
2013-02-26 16:01:00,59.0,13.0,30.13,WSW,257,9.0,18.0,16,0.00,,,0.00,,2013-02-27 00:01:00,
2013-02-26 16:11:00,59.0,13.0,30.13,WSW,257,9.0,18.0,16,0.00,,,0.00,,2013-02-27 00:11:00,
2013-02-26 16:21:00,59.0,13.0,30.13,West,281,5.0,10.0,16,0.00,,,0.00,,2013-02-27 00:21:00,
2013-02-26 16:31:00,59.0,11.0,30.14,WSW,248,5.0,12.0,15,0.00,,,0.00,,2013-02-27 00:31:00,
2013-02-26 16:41:00,59.0,11.0,30.14,WSW,248,5.0,12.0,15,0.00,,,0.00,,2013-02-27 00:41:00,
2013-02-26 16:52:00,59.0,13.0,30.14,WSW,257,7.0,11.0,16,0.00,,,0.00,,2013-02-27 00:52:00,
2013-02-26 17:01:00,58.0,12.0,30.14,West,266,5.0,8.0,16,0.00,,,0.00,,2013-02-27 01:01:00,
2013-02-26 17:11:00,58.0,12.0,30.14,West,266,5.0,8.0,16,0.00,,,0.00,,2013-02-27 01:11:00,
2013-02-26 17:21:00,57.0,11.0,30.14,WSW,257,6.0,10.0,16,0.00,,,0.00,,2013-02-27 01:21:00,
2013-02-26 17:31:00,57.0,11.0,30.14,WSW,257,6.0,9.0,16,0.00,,,0.00,,2013-02-27 01:31:00,
2013-02-26 17:41:00,57.0,11.0,30.14,WSW,257,6.0,9.0,16,0.00,,,0.00,,2013-02-27 01:41:00,
2013-02-26 17:52:00,55.0,12.0,30.15,West,269,4.0,6.0,18,0.00,,,0.00,,2013-02-27 01:52:00,
2013-02-26 18:01:00,53.0,12.0,30.15,WSW,255,4.0,6.0,19,0.00,,,0.00,,2013-02-27 02:01:00,
2013-02-26 18:12:00,53.0,12.0,30.15,WSW,255,4.0,6.0,19,0.00,,,0.00,,2013-02-27 02:12:00,
2013-02-26 18:21:00,50.0,13.0,30.15,West,277,3.0,4.0,22,0.00,,,0.00,,2013-02-27 02:21:00,
2013-02-26 18:31:00,48.0,13.0,30.16,WNW,291,3.0,3.0,24,0.00,,,0.00,,2013-02-27 02:31:00,
2013-02-26 18:41:00,48.0,13.0,30.16,WNW,291,3.0,3.0,24,0.00,,,0.00,,2013-02-27 02:41:00,
2013-02-26 18:52:00,47.0,13.0,30.17,West,276,2.0,2.0,25,0.00,,,0.00,,2013-02-27 02:52:00,
2013-02-26 19:01:00,45.0,14.0,30.17,West,274,2.0,2.0,28,0.00,,,0.00,,2013-02-27 03:01:00,
2013-02-26 19:21:00,45.0,13.0,30.19,WSW,240,4.0,5.0,27,0.00,,,0.00,,2013-02-27 03:21:00,
2013-02-26 19:31:00,45.0,13.0,30.19,WSW,246,2.0,4.0,27,0.00,,,0.00,,2013-02-27 03:31:00,
2013-02-26 19:41:00,45.0,13.0,30.19,WSW,246,2.0,4.0,27,0.00,,,0.00,,2013-02-27 03:41:00,
2013-02-26 19:52:00,45.0,12.0,30.20,SW,222,3.0,3.0,26,0.00,,,0.00,,2013-02-27 03:52:00,
2013-02-26 20:01:00,45.0,12.0,30.20,SW,226,3.0,3.0,26,0.00,,,0.00,,2013-02-27 04:01:00,
2013-02-26 20:11:00,45.0,12.0,30.20,SW,226,3.0,3.0,26,0.00,,,0.00,,2013-02-27 04:11:00,
2013-02-26 20:21:00,44.0,13.0,30.21,SW,224,0.0,3.0,28,0.00,,,0.00,,2013-02-27 04:21:00,
2013-02-26 20:31:00,38.0,15.0,30.21,East,83,0.0,2.0,39,0.00,,,0.00,,2013-02-27 04:31:00,
2013-02-26 20:41:00,38.0,15.0,30.21,East,83,0.0,2.0,39,0.00,,,0.00,,2013-02-27 04:41:00,
2013-02-26 20:52:00,36.0,15.0,30.22,East,84,0.0,0.0,42,0.00,,,0.00,,2013-02-27 04:52:00,
2013-02-26 21:01:00,37.0,16.0,30.22,East,83,0.0,0.0,41,0.00,,,0.00,,2013-02-27 05:01:00,
2013-02-26 21:21:00,34.0,15.0,30.22,East,84,0.0,0.0,45,0.00,,,0.00,,2013-02-27 05:21:00,
2013-02-26 21:32:00,38.0,13.0,30.23,WSW,243,3.0,4.0,36,0.00,,,0.00,,2013-02-27 05:32:00,
2013-02-26 21:41:00,38.0,13.0,30.23,WSW,243,3.0,4.0,36,0.00,,,0.00,,2013-02-27 05:41:00,
2013-02-26 21:52:00,42.0,13.0,30.24,West,262,2.0,3.0,30,0.00,,,0.00,,2013-02-27 05:52:00,
2013-02-26 22:02:00,39.0,13.0,30.24,ESE,108,0.0,2.0,34,0.00,,,0.00,,2013-02-27 06:02:00,
2013-02-26 22:11:00,39.0,13.0,30.24,ESE,108,0.0,2.0,34,0.00,,,0.00,,2013-02-27 06:11:00,
2013-02-26 22:21:00,37.0,13.0,30.24,NE,43,1.0,2.0,36,0.00,,,0.00,,2013-02-27 06:21:00,
2013-02-26 22:32:00,36.0,13.0,30.25,NE,43,0.0,0.0,39,0.00,,,0.00,,2013-02-27 06:32:00,
2013-02-26 22:41:00,36.0,13.0,30.25,NE,43,0.0,0.0,39,0.00,,,0.00,,2013-02-27 06:41:00,
2013-02-26 22:52:00,35.0,13.0,30.24,NE,43,0.0,0.0,40,0.00,,,0.00,,2013-02-27 06:52:00,
2013-02-26 23:01:00,36.0,12.0,30.25,NE,43,0.0,0.0,37,0.00,,,0.00,,2013-02-27 07:01:00,
2013-02-26 23:21:00,36.0,11.0,30.26,NE,43,0.0,0.0,35,0.00,,,0.00,,2013-02-27 07:21:00,
2013-02-26 23:31:00,36.0,12.0,30.26,NNE,15,3.0,3.0,36,0.00,,,0.00,,2013-02-27 07:31:00,
2013-02-26 23:41:00,36.0,12.0,30.26,NNE,15,3.0,3.0,36,0.00,,,0.00,,2013-02-27 07:41:00,
2013-02-26 23:52:00,36.0,12.0,30.26,North,8,3.0,4.0,37,0.00,,,0.00,,2013-02-27 07:52:00,